Weather History for VTSS - May, 2013

Change the Weather History Date:

Thursday, May 9, 2013

  Actual Average Record
Temperature  
Mean Temperature 85 °F -  
Max Temperature 93 °F 89 °F 95 °F (2011)
Min Temperature 77 °F 75 °F 73 °F (2007)
Cooling Degree Days 20    
Growing Degree Days 35 (Base 50)    
Moisture  
Dew Point 76 °F    
Average Humidity 82    
Maximum Humidity 94    
Minimum Humidity 51    
Precipitation  
Precipitation 0.20 in - - ()
Sea Level Pressure  
Sea Level Pressure 29.77 in    
Wind  
Wind Speed 2 mph ()    
Max Wind Speed 9 mph    
Max Gust Speed -    
Visibility 6.0 miles    
Events Rain , Thunderstorm    
Averages and records for this station are not official NWS values.
T = Trace of Precipitation, MM = Missing Value Source: Averaged Metar Reports

Daily Weather History Graph

Daily Weather History Graph

Search for Another Location

Airport or City:

Trip Planner

Search our weather history database for the weather conditions in past years. The results will help you decide how hot, cold, wet, or windy it might be!

Date:

Astronomy

May. 09, 2013 Rise Set
Actual Time 6:02 AM ICT 6:27 PM ICT
Civil Twilight 5:40 AM ICT 6:49 PM ICT
Nautical Twilight 5:15 AM ICT 7:14 PM ICT
Astronomical Twilight 4:49 AM ICT 7:40 PM ICT
Moon 5:18 AM ICT (5/9) 5:56 PM ICT (5/9)
Length of Visible Light 13h 08m
Length of Day
12h 24m
Waning Crescent, 1% of the Moon is Illuminated
May 9
Waning Crescent
May 10
New
May 18
First Quarter
May 25
Full
Jun 1
Last Quarter

Hourly Weather History & Observations

Time (ICT) Temp. Heat Index Dew Point Humidity Pressure Visibility Wind Dir Wind Speed Gust Speed Precip Events Conditions
12:00 AM 78.8 °F - 73.4 °F 83% 29.80 in 6.2 mi Calm Calm - N/A   Mostly Cloudy
12:30 AM 78.8 °F - 75.2 °F 89% 29.80 in 6.2 mi Calm Calm - N/A   Mostly Cloudy
1:00 AM 78 °F - 75 °F 86% 29.81 in 6 mi Calm Calm - -   Scattered Clouds
1:00 AM 78.8 °F - 75.2 °F 89% 29.80 in 6.2 mi Calm Calm - N/A   Mostly Cloudy
2:00 AM 78.8 °F - 75.2 °F 89% 29.77 in 6.2 mi Calm Calm - N/A   Mostly Cloudy
2:30 AM 77.0 °F - 75.2 °F 94% 29.77 in 6.2 mi Calm Calm - N/A   Mostly Cloudy
3:00 AM 77.0 °F - 75.2 °F 94% 29.77 in 6.2 mi Calm Calm - N/A   Mostly Cloudy
3:30 AM 77.0 °F - 75.2 °F 94% 29.77 in 6.2 mi Calm Calm - N/A   Mostly Cloudy
4:00 AM 77.0 °F - 75.2 °F 94% 29.77 in 6.2 mi Calm Calm - N/A   Mostly Cloudy
4:30 AM 77.0 °F - 75.2 °F 94% 29.74 in 5.0 mi Calm Calm - N/A   Mostly Cloudy
5:00 AM 77.0 °F - 75.2 °F 94% 29.77 in 5.0 mi Calm Calm - N/A   Mostly Cloudy
5:30 AM 77.0 °F - 75.2 °F 94% 29.77 in 5.0 mi Calm Calm - N/A   Mostly Cloudy
6:00 AM 77.0 °F - 75.2 °F 94% 29.77 in 5.0 mi Calm Calm - N/A   Mostly Cloudy
6:30 AM 77.0 °F - 75.2 °F 94% 29.77 in 5.0 mi Calm Calm - N/A   Mostly Cloudy
7:00 AM 78 °F - 75 °F 89% 29.79 in 5 mi Calm Calm - -   Mist
7:00 AM 78.8 °F - 75.2 °F 89% 29.77 in 5.0 mi Calm Calm - N/A   Mostly Cloudy
7:30 AM 80.6 °F 86.2 °F 75.2 °F 84% 29.80 in 5.6 mi West 2.3 mph - N/A   Mostly Cloudy
8:00 AM 82.4 °F 89.5 °F 75.2 °F 79% 29.80 in 5.6 mi Calm Calm - N/A   Mostly Cloudy
8:30 AM 84.2 °F 94.1 °F 77.0 °F 79% 29.83 in 5.6 mi West 3.5 mph - N/A   Mostly Cloudy
9:00 AM 86.0 °F 96.9 °F 77.0 °F 74% 29.83 in 6.2 mi NNW 4.6 mph - N/A   Mostly Cloudy
9:30 AM 87.8 °F 102.5 °F 78.8 °F 75% 29.83 in 6.2 mi North 4.6 mph - N/A   Mostly Cloudy
10:00 AM 89.6 °F 102.2 °F 77.0 °F 66% 29.83 in 6.2 mi NE 3.5 mph - N/A   Mostly Cloudy
10:30 AM 87.8 °F 99.7 °F 77.0 °F 70% 29.83 in 6.2 mi NNE 5.8 mph - N/A   Mostly Cloudy
11:00 AM 91.4 °F 105.1 °F 77.0 °F 63% 29.83 in 6.2 mi North 4.6 mph - N/A   Mostly Cloudy
11:30 AM 91.4 °F 102.5 °F 75.2 °F 59% 29.83 in 6.2 mi South 2.3 mph - N/A   Mostly Cloudy
12:00 PM 91.4 °F 102.5 °F 75.2 °F 59% 29.80 in 6.2 mi ESE 4.6 mph - N/A   Mostly Cloudy
12:30 PM 93.2 °F 107.2 °F 77.0 °F 59% 29.80 in 6.2 mi SSW 2.3 mph - N/A   Mostly Cloudy
1:00 PM 92 °F - 76 °F 51% 29.78 in 6 mi ESE 4.6 mph - -   Partly Cloudy
1:00 PM 91.4 °F 102.5 °F 75.2 °F 59% 29.77 in 6.2 mi ESE 4.6 mph - N/A   Mostly Cloudy
1:30 PM 89.6 °F 104.7 °F 78.8 °F 70% 29.77 in 6.2 mi East 3.5 mph - N/A   Mostly Cloudy
2:00 PM 89.6 °F 104.7 °F 78.8 °F 70% 29.74 in 6.2 mi NNW 8.1 mph - N/A   Mostly Cloudy
2:30 PM 87.8 °F 99.7 °F 77.0 °F 70% 29.71 in 6.2 mi NNW 9.2 mph - N/A   Mostly Cloudy
3:00 PM 84.2 °F 90.9 °F 73.4 °F 70% 29.71 in 6.2 mi North 9.2 mph - N/A   Mostly Cloudy
3:30 PM 84.2 °F 90.9 °F 73.4 °F 70% 29.71 in 6.2 mi North 6.9 mph - N/A   Mostly Cloudy
4:00 PM 84.2 °F 89.6 °F 71.6 °F 66% 29.68 in 6.2 mi WNW 6.9 mph - N/A   Mostly Cloudy
4:30 PM 84.2 °F 92.3 °F 75.2 °F 74% 29.68 in 6.2 mi NNW 3.5 mph - N/A   Mostly Cloudy
5:00 PM 84.2 °F 92.3 °F 75.2 °F 74% 29.68 in 5.6 mi SSE 6.9 mph - N/A Thunderstorm Thunderstorm
5:30 PM 78.8 °F - 77.0 °F 94% 29.71 in 5.6 mi South 8.1 mph - N/A Rain Light Rain
6:00 PM 78.8 °F - 77.0 °F 94% 29.71 in 6.2 mi South 4.6 mph - N/A Rain Light Rain
6:30 PM 78.8 °F - 77.0 °F 94% 29.71 in 6.2 mi South 2.3 mph - N/A   Mostly Cloudy
7:00 PM 79 °F - 76 °F 87% 29.75 in 6 mi Calm Calm - - Rain Light Rain
7:00 PM 78.8 °F - 75.2 °F 89% 29.74 in 6.2 mi Calm Calm - N/A   Mostly Cloudy
7:30 PM 78.8 °F - 75.2 °F 89% 29.77 in 6.2 mi SSE 2.3 mph - N/A   Mostly Cloudy
8:00 PM 78.8 °F - 75.2 °F 89% 29.77 in 6.2 mi SE 2.3 mph - N/A   Mostly Cloudy
8:30 PM 78.8 °F - 75.2 °F 89% 29.77 in 6.2 mi Calm Calm - N/A   Mostly Cloudy
9:00 PM 78.8 °F - 75.2 °F 89% 29.80 in 6.2 mi West 3.5 mph - N/A   Mostly Cloudy
9:30 PM 78.8 °F - 75.2 °F 89% 29.80 in 6.2 mi West 2.3 mph - N/A   Mostly Cloudy
10:00 PM 78.8 °F - 75.2 °F 89% 29.80 in 6.2 mi SW 2.3 mph - N/A   Mostly Cloudy
10:30 PM 78.8 °F - 75.2 °F 89% 29.80 in 6.2 mi SSW 2.3 mph - N/A   Mostly Cloudy
11:00 PM 78.8 °F - 77.0 °F 94% 29.80 in 6.2 mi Calm Calm - N/A   Mostly Cloudy
11:30 PM 78.8 °F - 77.0 °F 94% 29.80 in 6.2 mi Calm Calm - N/A   Mostly Cloudy